Location: Unspecified
(51.0950°N, 12.9690°E)
Time: 02:39:46
(UTC+00:00)

Envisat - Visible Passes

Search period start: 29 November 2023 00:00
Search period end: 09 December 2023 00:00
Orbit: 762 x 764 km, 98.3° (Epoch: 28 November)

Date Brightness Start Highest point End Pass type
(mag) Time Alt. Az. Time Alt. Az. Time Alt. Az.
29 Nov 5.2 03:42:47 10° N 03:43:29 14° N 03:43:29 14° N visible
30 Nov 5.5 03:05:21 10° NNE 03:05:41 12° NNE 03:05:41 12° NNE visible
30 Nov 5.2 04:45:41 10° NNW 04:45:51 11° NNW 04:45:51 11° NNW visible
01 Dec 5.2 04:07:35 10° N 04:08:04 12° N 04:08:04 12° N visible
02 Dec 5.4 03:29:57 10° N 03:30:17 12° N 03:30:17 12° N visible
03 Dec 5.2 04:32:35 10° NNW 04:32:39 10° NNW 04:32:39 10° NNW visible
04 Dec 5.4 03:54:41 10° N 03:54:53 11° N 03:54:53 11° N visible
